Home   Weather   Syracuse   Past weeks
Flag for USA

Past Weather in Syracuse, New York, USA — Yesterday and Last 2 Weeks

Now
44 °F

Passing clouds.


Feels Like: 38 °F
Forecast: 53 / 38 °F
Wind: 12 mph from West

Location: Syracuse Hancock International Airport

Current Time: Oct 19, 2019 at 3:17:33 am

Latest Report: Oct 19, 2019 at 1:54 am


Visibility: 10 mi

Pressure: 30.04 "Hg

Humidity: 82%

Dew Point: 39 °F

Location of SyracuseLocation

Past Weather in Syracuse — Graph

°F

Syracuse Temperature Yesterday

Maximum temperature yesterday: 47 °F (at 12:54 am)
Minimum temperature yesterday: 42 °F (at 8:54 pm)
Average temperature yesterday: 45 °F

High & Low Weather Summary for the Past Weeks

 TemperatureHumidityPressure
High70 °F (Oct 11, 3:54 pm)97% (Oct 13, 5:54 am)30.47 "Hg (Oct 13, 5:54 am)
Low33 °F (Oct 5, 6:54 am)32% (Oct 11, 12:54 pm)29.26 "Hg (Oct 17, 7:54 am)
Average52 °F75%30.05 "Hg
* Reported Oct 4 1:54 am — Oct 19 1:54 am, Syracuse. Weather by CustomWeather, © 2019

Note: Actual official high and low records may vary slightly from our data, if they occured in-between our weather recording intervals... More about our weather records

Advertising

Syracuse Weather History for the Previous 24 Hours

Scroll right to see more
 ConditionsComfort  
Time TempWeatherWind HumidityBarometerVisibility
1:54 am
Sat, Oct 19
44 °FPassing clouds.12 mph82%30.04 "Hg10 mi
12:54 am46 °FOvercast.9 mph79%30.04 "Hg10 mi
11:54 pm
Fri, Oct 18
46 °FOvercast.8 mph79%30.03 "Hg10 mi
10:54 pm45 °FOvercast.7 mph82%30.03 "Hg10 mi
9:54 pm43 °FPassing clouds.No wind86%30.03 "Hg10 mi
8:54 pm42 °FPassing clouds.3 mph85%30.03 "Hg10 mi
7:54 pm43 °FPassing clouds.5 mph82%30.03 "Hg10 mi
6:54 pm46 °FPassing clouds.9 mph73%30.01 "Hg10 mi
6:01 pm46 °FBroken clouds.8 mph77%30.00 "Hg10 mi
4:54 pm47 °FOvercast.12 mph74%29.99 "Hg10 mi
3:54 pm47 °FOvercast.9 mph71%29.98 "Hg10 mi
2:54 pm47 °FMostly cloudy.14 mph71%29.97 "Hg10 mi
1:54 pm46 °FOvercast.15 mph73%29.96 "Hg10 mi
12:54 pm46 °FOvercast.14 mph73%29.95 "Hg10 mi
11:54 am46 °FOvercast.14 mph73%29.94 "Hg10 mi
10:54 am46 °FOvercast.15 mph79%29.92 "Hg10 mi
9:54 am46 °FOvercast.10 mph79%29.90 "Hg10 mi
8:54 am45 °FMostly cloudy.8 mph90%29.89 "Hg10 mi
8:10 am45 °FMostly cloudy.9 mph90%29.89 "Hg10 mi
7:54 am44 °FMostly cloudy.9 mph93%29.87 "Hg10 mi
6:54 am45 °FLight rain. Mostly cloudy.12 mph86%29.84 "Hg10 mi
5:54 am45 °FOvercast.13 mph90%29.81 "Hg10 mi
4:57 am45 °FMostly cloudy.12 mph90%29.79 "Hg10 mi
4:04 am46 °FMostly cloudy.12 mph86%29.77 "Hg10 mi
3:54 am46 °FLight rain. Mostly cloudy.14 mph89%29.76 "Hg10 mi
Weather by CustomWeather, © 2019

See weather overview